User: anonymous   Login
Location: Kunchanapalle
(16.4623°N, 80.6176°E)
Time: 11:25:47
(UTC+00:00)
Language:

Cosmos 1605 Rocket - Orbit

View from above orbital plane
View from above orbital plane
View from above satellite
View from above satellite

Ground track
Ground track

The orbit data is extracted from the following two-line orbital elements,

1 15360U 84109B   20304.83618164 +.00000038 +00000-0 +23394-4 0  9999
2 15360 082.9431 213.5520 0040453 207.2957 152.6075 13.76767548810795
Epoch (UTC): 30 October 2020 20:04:06
Eccentricity: 0.0040453
inclination: 82.9431°
perigee height: 945 km
apogee height: 1005 km
right ascension of ascending node: 213.5520°
argument of perigee: 207.2957°
revolutions per day: 13.76767548
mean anomaly at epoch: 152.6075°
orbit number at epoch: 81079

The dashed part of the orbit path shows where the satellite is in the earth's shadow,  

DLR